GFSGBSN_925_rhum_270.txt.gz
RH
83 82 82 73 63 62 60 58 62 58 57 60 58 56 54 45 38 30 23 19 24 27 26 22 19 15 11 10 9 16 18 18 20 17 16 15 14 15 11 12 13 13 16 15 12 13 14
88 82 83 79 72 64 63 58 61 66 63 61 62 59 54 50 38 27 20 23 30 32 31 28 22 16 11 12 12 16 20 20 20 16 16 14 15 15 15 14 12 16 13 12 13 15 16
76 86 82 73 73 71 68 65 64 69 67 63 64 59 56 51 36 24 24 33 39 36 33 32 25 19 12 9 15 14 19 20 21 18 17 18 18 16 14 12 16 15 12 13 13 15 18
93 91 86 73 62 56 68 72 64 71 67 67 60 64 58 47 32 30 39 42 38 37 35 30 26 26 9 8 13 13 17 16 19 21 18 20 19 15 16 17 16 15 16 14 15 14 17
90 86 74 85 77 82 76 74 74 71 70 67 61 60 62 43 31 51 47 39 36 36 36 32 30 24 8 11 14 19 21 14 16 20 21 21 19 19 19 13 15 15 14 16 17 17 15
86 92 98 89 79 85 85 80 79 77 74 68 65 58 58 43 51 54 44 36 38 35 40 37 37 25 12 10 21 22 19 16 14 17 18 18 17 17 16 14 12 17 17 17 18 20 21
95 90 99 97 94 79 87 81 81 82 77 68 62 62 52 40 65 57 42 46 29 32 36 31 27 22 17 23 24 18 17 16 17 16 15 21 15 13 18 22 20 21 20 18 17 20 28
88 94 87 99 99 80 88 81 83 83 76 71 63 59 55 44 69 56 58 41 56 62 51 36 40 39 34 32 25 18 20 17 19 17 21 22 14 18 22 22 23 23 21 20 20 27 28
81 92 94 89 99 92 82 83 77 79 75 76 70 59 60 72 65 63 63 62 68 69 53 33 37 36 33 34 24 17 18 17 19 20 20 15 19 20 23 22 24 23 22 22 20 26 27
98 84 96 89 98 98 81 86 68 77 73 78 69 64 58 63 65 70 58 73 69 74 41 24 33 31 33 30 32 20 17 17 21 20 20 16 17 24 23 22 21 24 19 21 21 23 23
94 100 99 93 86 95 100 98 93 80 74 82 67 65 58 77 79 60 70 66 62 69 40 23 31 29 26 26 21 22 18 17 20 21 19 15 22 22 23 21 20 21 20 21 20 21 23
90 83 100 96 91 89 97 97 98 96 83 86 65 67 60 86 80 84 72 60 64 52 50 32 30 33 27 22 26 22 18 17 14 20 19 14 22 21 18 20 21 21 22 22 22 23 30
89 78 80 100 92 85 95 98 100 90 82 89 68 70 68 86 76 72 69 64 71 77 30 28 35 33 22 26 28 26 23 22 21 27 25 17 17 19 22 24 22 20 23 31 34 34 29
98 93 82 90 95 92 96 99 100 98 78 96 80 77 80 72 80 75 67 88 99 49 33 40 37 37 30 30 29 28 26 23 19 15 16 20 27 21 20 21 21 24 24 30 40 34 33
84 89 94 90 97 85 89 99 100 100 87 94 79 87 100 80 88 89 82 99 88 50 28 43 41 39 39 35 33 29 28 23 20 22 25 22 31 26 23 22 22 26 31 24 36 44 39
80 85 92 91 100 87 88 95 98 100 100 100 100 97 93 93 94 89 91 90 75 46 47 45 41 43 42 39 37 31 30 37 34 29 26 30 39 28 29 24 26 26 23 34 32 45 39
84 85 86 98 96 95 82 88 100 100 100 99 98 96 79 87 97 98 95 85 57 45 43 46 50 50 48 46 40 34 35 45 42 37 29 29 33 37 32 31 28 31 31 34 31 40 42
85 95 90 99 100 100 86 84 98 100 100 100 94 95 99 95 98 98 90 63 45 50 49 50 47 49 49 48 47 48 45 47 41 43 33 35 32 41 35 38 36 31 29 30 44 42 46
84 86 100 96 98 100 98 88 96 100 99 96 94 92 100 96 96 96 82 63 47 53 50 49 50 48 50 49 52 50 50 49 41 41 41 37 39 45 45 42 37 36 36 36 40 41 46
80 88 93 95 95 88 99 95 98 100 99 91 98 98 100 100 94 78 81 74 66 49 48 43 52 47 47 47 47 50 51 49 45 40 61 46 41 37 44 38 36 46 43 39 38 59 44
86 92 92 94 94 96 100 96 100 100 99 99 99 97 83 96 98 77 66 67 64 63 48 46 58 46 44 57 50 51 47 49 45 58 43 37 48 46 46 46 44 44 40 44 43 38 51
85 93 97 94 87 97 100 99 99 98 99 98 97 99 96 80 83 79 79 74 62 59 58 58 52 50 42 46 46 52 44 48 45 47 46 44 55 46 99 46 42 44 43 42 40 39 40
86 88 98 90 91 98 97 99 95 100 100 99 100 96 77 88 88 84 83 67 58 56 68 55 69 54 57 45 42 45 46 47 47 46 53 50 56 57 59 51 49 53 46 39 36 34 36
82 87 93 88 96 88 89 100 98 100 99 86 95 95 97 99 83 77 76 63 56 58 69 74 79 66 50 44 46 48 47 48 48 48 45 55 52 62 63 58 84 40 33 33 36 33 29
81 87 95 92 85 85 87 86 100 100 100 86 88 87 96 98 66 73 75 69 65 76 82 72 70 46 48 49 61 65 64 59 54 58 53 48 54 82 79 61 44 40 38 39 38 33 26
84 88 89 94 92 90 89 87 100 100 100 99 89 78 79 81 88 65 74 73 86 81 85 80 71 57 54 66 76 75 69 48 60 70 62 60 59 72 80 77 62 39 32 29 31 41 29
79 81 86 89 97 91 95 95 93 100 100 100 90 71 81 93 74 61 71 80 72 78 87 66 72 73 57 73 82 81 65 43 64 61 73 74 79 93 74 90 58 38 31 33 53 42 32
75 77 83 79 94 92 97 89 88 100 100 99 96 89 86 96 90 73 60 59 61 66 77 70 71 72 76 82 70 76 70 59 50 43 59 63 74 81 70 98 85 33 37 45 34 38 32
80 88 79 83 83 88 91 94 88 100 99 91 97 94 83 94 100 95 94 85 76 45 56 68 56 57 57 62 67 62 76 66 50 62 46 58 43 57 50 54 43 38 33 31 35 30 33

GFSGBSN_925_rhum_273.txt.gz
RH
97 87 84 83 77 62 57 56 52 53 58 57 57 55 52 50 43 34 26 20 21 22 22 20 15 9 14 9 8 16 15 17 17 12 11 10 9 9 8 7 8 9 9 10 9 9 10
89 98 87 85 82 79 61 54 55 55 56 63 60 58 55 49 43 33 22 20 28 30 28 26 21 11 14 11 12 15 17 15 14 12 12 10 9 8 8 8 8 11 7 7 8 9 9
82 86 98 87 84 82 80 62 55 60 60 59 65 61 58 51 42 28 20 28 34 34 32 29 25 22 12 9 10 13 14 14 13 13 11 12 10 10 10 9 9 8 9 9 10 11 12
85 83 99 90 88 84 82 81 67 60 64 63 63 62 61 53 39 23 32 39 35 30 29 30 26 26 12 8 8 8 9 11 13 14 12 14 13 12 11 10 8 9 9 11 12 11 13
76 88 85 99 81 87 85 74 74 69 68 72 63 65 62 54 33 31 45 34 29 31 29 29 30 22 12 8 8 12 13 10 13 14 15 15 14 12 11 11 9 11 11 11 14 12 12
76 84 90 88 93 78 90 72 74 73 69 72 73 64 61 52 27 49 42 32 30 31 36 38 29 23 13 7 13 14 13 11 10 12 13 14 12 13 12 10 9 10 11 12 12 14 14
66 76 87 89 96 76 68 84 85 82 76 73 76 68 63 51 29 51 37 28 30 32 32 22 22 17 12 14 15 13 14 13 12 12 13 15 14 12 9 12 14 11 11 11 12 15 17
52 66 81 93 94 95 85 76 79 84 83 75 76 75 68 52 38 51 52 30 40 48 36 20 21 22 23 23 20 11 14 13 15 16 11 15 12 7 13 15 14 13 13 13 14 16 18
68 68 72 89 98 94 93 87 79 81 82 81 82 78 68 52 59 52 41 41 47 49 37 20 16 20 17 24 24 11 13 12 14 15 13 15 11 11 16 16 16 15 15 14 16 16 15
66 58 83 90 87 99 94 98 93 80 84 84 83 84 64 52 62 43 41 50 53 59 35 18 26 24 24 24 25 17 11 12 14 15 12 14 10 14 16 15 15 16 14 15 16 18 19
68 62 98 93 90 96 95 97 100 85 82 82 84 86 64 52 54 46 48 55 58 56 42 14 19 22 19 23 16 19 15 14 16 16 14 15 13 17 16 15 14 16 16 16 16 17 18
67 74 82 97 100 100 98 99 100 93 83 84 87 85 66 73 70 50 59 58 56 46 45 22 20 27 24 23 18 18 19 15 14 15 15 15 11 13 12 13 15 15 18 17 16 18 25
75 69 80 96 85 98 98 94 100 93 85 91 92 84 66 57 51 74 72 51 49 58 22 24 23 23 24 21 19 21 20 23 22 24 22 18 14 14 16 17 17 19 19 26 28 27 28
75 78 92 98 94 84 100 94 100 94 88 96 85 81 76 70 70 68 61 63 80 37 32 21 24 23 28 19 21 22 22 21 18 17 18 23 24 15 17 17 20 18 17 25 38 32 26
78 80 93 98 97 87 96 98 92 94 94 100 100 96 99 88 76 71 77 98 87 56 30 30 27 31 30 20 26 24 24 21 16 16 21 19 19 12 13 13 13 18 22 17 26 27 34
81 85 88 92 95 95 95 99 84 83 100 100 99 95 81 96 83 88 89 89 77 45 32 26 38 29 33 29 31 26 25 18 18 15 15 21 25 21 20 18 17 22 17 30 28 42 41
89 90 90 92 91 96 96 100 96 89 99 100 97 98 83 98 79 98 95 85 61 39 35 41 36 47 35 32 28 27 25 30 28 23 20 23 32 31 25 24 23 24 25 24 26 26 40
87 88 92 92 93 91 99 98 100 96 100 100 98 98 100 86 97 98 91 73 54 46 38 40 42 35 34 35 34 28 30 34 33 30 27 24 27 39 28 26 26 19 23 24 39 38 33
79 88 91 85 92 86 95 100 100 100 100 97 97 98 99 73 95 95 83 71 53 49 46 41 42 35 34 37 43 40 37 40 37 36 33 29 30 52 46 34 25 27 26 25 26 32 41
83 86 81 88 91 97 99 100 98 100 98 97 98 99 99 94 79 71 83 79 69 44 43 36 36 37 42 44 39 45 46 42 36 35 50 45 33 35 47 38 30 33 33 27 29 49 43
80 85 86 87 83 96 98 100 87 100 100 99 99 90 84 97 96 84 72 70 70 60 46 37 43 37 34 44 40 45 38 44 38 54 41 35 40 35 38 36 32 35 32 30 32 30 42
80 83 86 94 85 89 100 100 99 100 100 97 98 98 90 84 72 84 81 77 66 54 46 47 45 40 34 38 33 39 38 40 40 39 37 36 48 41 99 36 33 35 31 32 32 30 30
78 84 91 98 90 95 97 98 100 99 100 95 99 98 81 79 85 92 87 72 64 54 46 38 39 44 42 31 28 34 36 35 37 41 42 41 46 48 54 40 39 47 37 32 29 26 30
76 81 88 95 96 95 95 100 100 97 99 93 91 86 99 95 90 82 71 62 63 56 58 45 42 49 49 33 40 41 40 38 40 39 37 44 43 50 62 47 76 31 28 27 31 28 25
80 76 85 91 97 88 96 89 97 100 98 98 94 88 97 98 81 72 69 67 59 60 60 61 58 50 66 52 51 58 58 54 47 40 43 37 42 65 64 51 32 28 30 33 35 32 24
75 80 82 88 95 94 94 90 100 98 100 100 94 85 87 94 92 68 72 64 82 92 91 65 63 56 53 59 57 66 68 50 53 57 50 45 49 62 70 59 49 30 28 24 25 38 22
77 73 87 85 92 99 97 97 91 90 100 100 91 89 87 96 89 94 84 76 69 82 88 77 75 83 61 73 75 58 49 35 52 59 69 68 70 90 69 81 52 27 24 27 45 40 26
78 67 83 83 96 100 92 96 100 86 98 97 99 91 87 97 89 86 88 68 62 66 82 85 84 82 83 79 69 59 51 40 40 37 50 56 64 71 64 95 83 29 28 41 32 31 27
76 68 82 82 95 93 88 94 94 92 88 100 99 100 92 92 100 98 94 84 69 46 58 68 60 65 57 62 55 51 51 41 43 52 35 58 44 54 49 50 36 28 30 29 27 30 25

GFSGBSN_925_rhum_279.txt.gz
RH
77 84 86 92 98 98 97 93 82 64 56 51 48 49 47 48 52 47 39 32 23 20 21 21 20 19 15 20 15 12 12 13 12 11 11 11 13 12 12 11 10 8 8 10 8 10 45
71 72 79 80 84 93 94 93 94 85 65 55 52 50 50 48 48 50 42 31 22 21 23 22 24 23 24 20 10 12 13 12 12 11 11 11 12 12 12 13 10 8 10 9 7 9 43
64 65 66 72 74 81 86 93 96 95 87 67 55 53 53 52 50 47 43 30 20 19 24 25 27 30 31 25 8 9 9 10 10 11 12 12 12 15 16 16 11 10 12 9 8 8 32
58 54 57 62 66 70 80 91 99 100 96 88 71 59 56 54 53 50 43 26 19 18 18 26 28 34 42 14 13 8 8 8 9 12 11 11 13 15 15 12 12 12 10 13 11 13 35
74 62 54 50 59 64 68 79 89 98 100 96 87 72 65 60 54 52 41 21 18 17 18 24 28 40 39 18 8 8 6 8 9 10 11 12 12 16 18 19 21 15 16 16 14 14 15
91 80 64 60 50 50 62 70 81 86 93 95 94 80 74 66 61 59 37 24 18 17 24 33 40 36 25 13 10 12 12 11 12 11 14 16 18 21 22 20 23 17 18 17 19 16 49
89 87 72 62 59 47 44 57 68 85 88 88 94 90 74 74 66 66 39 37 36 46 45 37 33 28 22 18 17 14 10 10 13 14 19 18 25 28 21 18 17 14 15 14 18 15 46
74 76 63 55 57 53 52 46 53 71 88 91 87 89 85 81 74 61 49 70 42 40 56 36 32 30 24 19 22 20 17 16 18 22 19 21 24 19 17 17 17 16 16 16 16 15 16
75 69 61 60 51 54 51 52 48 55 75 89 94 82 95 85 82 61 44 47 32 43 64 36 25 23 21 18 21 21 17 18 19 23 22 24 19 13 14 17 17 15 17 19 19 18 17
82 79 75 52 48 49 52 49 49 49 62 85 96 91 93 96 80 53 53 23 40 42 89 41 22 23 19 16 19 15 14 18 19 21 20 20 16 15 15 17 15 19 16 16 15 23 31
76 77 74 71 59 46 46 50 49 52 62 71 94 97 95 100 70 70 35 34 43 53 90 25 20 13 15 20 17 17 12 17 23 19 18 19 16 17 16 17 16 17 17 20 19 20 23
82 79 77 76 69 65 54 48 48 49 58 73 85 99 99 100 95 50 56 59 50 74 88 32 24 21 23 20 17 19 20 19 17 20 17 18 13 14 14 14 14 13 18 20 24 26 37
75 68 70 72 69 65 66 60 52 55 58 65 86 97 100 100 87 52 53 64 87 88 30 26 29 26 27 28 27 26 27 26 28 28 25 20 19 16 14 16 15 17 23 41 44 42 41
65 58 60 62 62 64 66 68 63 58 59 64 70 90 98 100 88 64 67 94 100 56 41 26 23 24 30 26 26 24 26 29 24 26 29 32 33 20 16 18 21 22 29 53 50 48 53
65 63 61 60 61 62 63 70 70 66 64 72 84 82 100 98 96 76 91 98 91 55 35 33 31 35 34 27 28 28 29 25 24 24 32 36 31 18 15 15 16 22 30 25 36 34 64
76 75 68 69 70 72 71 69 69 70 73 83 100 92 95 95 98 87 97 91 75 43 34 39 44 35 43 34 32 34 33 23 22 21 22 29 37 23 20 15 15 20 23 34 41 50 53
72 68 69 71 74 75 75 81 79 77 78 76 100 97 75 92 100 96 95 84 63 40 38 50 52 51 45 47 33 34 34 27 25 22 21 25 38 40 26 22 25 25 27 25 36 47 61
69 65 67 68 74 76 83 91 90 88 82 93 96 97 69 94 96 92 94 75 54 49 46 53 51 54 52 51 48 50 40 36 34 32 23 28 51 58 43 34 19 23 25 28 72 46 61
72 67 67 71 82 80 76 80 84 86 87 98 97 92 77 98 94 96 82 76 56 55 52 51 57 52 46 54 61 57 48 40 38 38 38 33 66 73 66 46 32 28 28 24 37 58 57
71 69 70 72 78 70 74 83 87 88 93 100 98 99 96 96 83 84 88 83 76 58 55 53 54 51 52 58 63 57 60 44 37 37 49 46 63 72 85 66 65 60 35 30 49 78 60
74 74 72 73 75 73 81 82 81 85 96 99 98 96 87 97 95 92 78 75 80 73 62 54 56 53 52 76 76 74 65 67 45 53 41 50 54 66 65 60 64 58 50 46 55 50 63
78 80 74 76 72 76 80 85 80 90 95 99 98 96 96 94 86 87 89 82 75 68 67 72 61 52 48 56 65 84 84 64 55 46 47 47 64 70 82 56 56 52 55 46 48 46 44
76 75 78 79 74 76 79 86 83 92 97 95 86 89 94 92 93 93 86 79 77 64 60 53 57 58 57 50 51 50 52 64 60 55 59 57 66 75 86 64 63 66 52 44 51 49 35
81 75 74 76 75 76 79 86 88 99 94 96 94 98 96 95 93 90 77 73 72 64 60 60 54 61 51 46 47 45 50 59 63 63 51 62 59 75 84 78 100 56 35 31 35 36 28
77 78 78 71 72 78 77 80 81 94 99 100 99 98 99 93 85 90 85 83 75 63 62 60 53 50 50 51 63 67 60 54 58 63 55 57 71 82 86 86 61 45 36 34 33 36 26
80 77 76 83 71 70 76 81 86 91 96 94 95 98 97 95 93 73 86 84 86 80 76 93 82 76 64 82 79 81 87 64 68 60 55 55 63 78 88 82 80 53 35 28 30 50 32
77 76 66 68 75 72 72 89 84 92 97 100 93 89 98 97 87 82 86 88 80 83 78 98 96 88 82 89 96 88 74 51 74 68 74 76 89 98 95 95 76 42 31 29 47 50 38
75 75 78 70 70 76 75 90 88 95 99 100 88 84 98 98 99 96 93 76 80 77 88 98 96 97 96 88 84 86 79 62 55 55 70 76 87 95 89 93 85 45 32 42 50 37 35
75 76 78 78 66 77 77 87 87 99 94 100 96 77 98 99 100 100 99 100 96 79 81 89 80 95 92 91 83 69 71 63 59 80 50 79 71 85 77 78 51 37 41 49 43 40 31

GFSGBSN_925_rhum_282.txt.gz
RH
73 74 79 82 85 90 87 87 89 89 85 71 60 55 50 47 47 46 42 37 31 24 20 23 24 22 15 23 16 12 11 11 11 12 12 13 14 14 15 13 13 9 9 10 25 46 49
67 68 69 70 77 79 84 87 85 89 90 87 75 61 58 54 52 50 46 38 31 24 20 22 27 26 27 20 10 12 10 8 11 12 12 13 14 13 14 16 14 10 10 12 11 42 44
64 60 58 62 65 70 75 80 88 84 88 88 87 74 61 57 57 57 50 39 31 24 20 20 26 34 38 25 9 11 13 11 9 11 12 12 14 16 17 18 14 12 14 12 9 46 53
78 65 54 53 56 61 66 72 82 85 79 87 88 85 73 61 61 60 51 40 27 22 20 18 23 34 38 14 14 18 12 11 9 9 12 12 14 15 17 15 16 14 12 13 10 35 50
81 78 69 59 53 51 54 61 70 80 82 85 89 86 77 68 70 65 54 41 28 26 23 20 26 42 40 16 14 12 9 8 6 9 11 12 13 16 18 21 26 20 19 16 15 19 49
87 80 71 62 57 52 47 48 56 65 81 83 84 86 81 69 70 69 58 42 28 27 36 33 42 34 23 14 13 14 12 11 12 13 14 16 22 22 27 24 26 19 18 19 18 19 47
89 91 73 56 48 50 50 46 46 53 62 80 84 82 81 76 80 78 62 42 35 44 43 44 42 37 34 21 24 18 17 15 13 15 20 19 27 31 28 26 21 19 20 20 13 25 57
80 79 83 68 55 46 48 50 44 45 52 62 84 85 78 82 91 81 73 62 44 54 71 41 40 39 34 32 36 26 19 18 18 22 20 22 29 23 20 21 21 21 21 18 15 20 61
82 78 75 73 68 54 47 46 50 43 42 51 67 89 83 82 99 79 69 54 38 30 74 48 36 35 32 27 32 31 21 21 21 25 23 26 23 18 19 20 24 22 19 18 17 16 70
77 76 76 74 72 60 52 48 43 44 43 47 57 77 88 89 86 76 64 48 42 40 64 50 34 28 24 23 27 22 19 22 24 24 24 27 21 21 21 21 20 22 16 18 20 25 35
78 75 72 67 64 62 60 59 54 47 44 44 56 64 90 100 97 79 53 56 60 52 79 33 32 18 21 25 20 19 16 21 26 25 23 26 19 22 23 20 17 20 20 19 24 26 26
79 78 76 73 67 61 63 61 64 60 52 48 48 65 79 95 100 89 70 71 69 67 91 46 25 25 27 25 21 18 20 18 20 26 24 23 16 16 18 16 17 17 16 21 28 31 40
78 78 77 69 62 62 60 61 61 66 62 57 56 54 73 94 92 78 88 74 95 89 40 35 29 26 26 29 24 22 24 30 33 37 36 27 25 18 16 20 17 17 29 40 44 44 43
75 76 69 61 60 63 64 65 63 59 65 68 66 64 57 71 82 98 83 98 96 60 58 33 30 30 33 30 30 30 32 37 32 28 33 37 35 25 19 21 22 22 29 53 49 54 46
72 75 69 62 60 62 65 66 67 67 66 74 75 83 90 51 63 92 99 98 84 69 46 40 34 39 39 33 31 33 35 34 29 31 36 41 35 22 20 18 19 24 33 28 41 42 62
77 75 78 70 62 58 62 67 68 75 85 85 86 91 82 68 78 98 98 92 81 56 38 38 45 41 47 38 36 38 36 28 26 24 26 33 39 27 24 21 21 19 21 32 50 48 47
73 74 75 69 62 59 61 63 64 73 89 90 98 95 70 58 79 98 95 86 76 64 46 54 51 52 49 46 41 39 38 30 27 24 23 28 38 36 31 31 28 28 30 31 37 55 60
71 69 68 68 63 64 65 67 68 85 92 96 92 98 69 60 98 90 95 76 62 64 52 50 56 57 56 54 55 51 50 36 35 28 31 33 45 49 34 36 37 24 22 26 62 43 66
76 70 70 67 67 66 71 76 77 76 80 92 95 89 65 66 94 89 84 73 77 67 61 54 62 60 56 59 59 60 55 40 39 42 37 42 63 69 56 42 39 38 29 28 44 56 56
79 75 73 70 71 70 81 75 72 79 86 99 98 99 93 91 83 83 80 86 90 63 65 53 52 54 58 63 60 57 63 47 42 39 54 56 66 59 61 48 57 59 57 43 44 80 63
75 72 71 74 75 74 77 75 73 82 79 100 97 98 84 88 89 88 80 86 84 87 58 52 56 55 55 72 65 72 67 64 48 54 43 50 62 63 60 62 65 64 56 57 54 54 59
76 74 74 74 75 77 77 72 78 82 86 99 99 100 92 89 74 93 78 78 86 81 71 70 61 55 55 57 56 70 71 72 64 50 52 54 67 67 80 65 65 62 58 52 53 54 57
78 76 75 75 75 82 78 74 76 82 88 99 94 89 96 93 87 98 84 66 90 72 69 56 58 60 65 60 51 60 64 65 56 59 65 64 78 78 82 66 64 80 62 55 49 49 50
79 77 76 72 77 80 77 74 74 84 91 99 90 98 100 96 94 86 86 77 85 87 76 63 53 64 50 46 50 56 63 70 70 67 60 71 71 79 90 76 95 60 43 41 48 44 42
74 74 77 81 76 72 72 78 76 81 80 99 98 98 100 98 83 87 81 81 75 72 76 61 59 50 56 66 87 86 80 86 82 79 72 59 75 88 90 92 70 53 49 50 47 41 37
80 78 75 73 74 77 70 70 71 77 79 92 100 100 99 100 79 65 85 86 88 85 81 78 59 70 71 93 97 98 99 85 82 79 68 74 69 74 94 87 92 59 37 32 31 50 33
78 78 74 71 58 56 72 71 65 75 83 87 100 94 98 99 83 78 94 83 79 77 84 76 87 95 74 94 94 95 94 64 90 79 84 85 90 80 96 90 79 51 35 32 50 54 39
69 70 75 73 70 62 63 75 68 82 86 91 97 99 95 98 90 78 82 88 77 90 90 79 94 99 96 92 96 91 83 71 70 68 68 81 87 93 91 89 79 52 33 45 43 44 44
75 75 75 75 72 72 65 71 71 84 84 96 99 99 97 98 94 86 94 89 77 87 85 96 78 80 91 88 96 84 83 70 74 80 57 76 74 84 69 76 53 48 37 43 44 41 39